Location: Unspecified
(49.2170°N, 0.0000°E)
Time: 07:43:36
(UTC+00:00)

Transit 4A - Pass Details

Date: 21 June 2019
Orbit: 862 x 982 km, 66.8° (Epoch: 19 July)

Event Time Altitude Azimuth Distance (km) Brightness Sun altitude
Rises 10:38:16 0° 259° (W) 3,649 10.9 59.4°
Reaches altitude 10° 10:41:14 10° 271° (W) 2,718 10.3 59.8°
Maximum altitude 10:46:36 28° 329° (NNW) 1,766 9.4 60.3°
Drops below altitude 10° 10:52:02 10° 26° (NNE) 2,747 10.3 60.8°
Sets 10:55:03 0° 39° (NE) 3,694 10.9 61.1°
